Location: Eymir
(36.7333°N, 29.7833°E)
Time: 05:13:54
(UTC+00:00)

CUTE 1.7 + AOD 2 - Pass Details

Date: 20 May 2026
Orbit: 531 x 545 km, 97.8° (Epoch: 8 June)

Event Time Altitude Azimuth Distance (km) Brightness Sun altitude
Rises 02:16:18 0° 17° (NNE) 2,680 ? -6.7°
Reaches altitude 10° 02:18:27 10° 21° (NNE) 1,785 ? -6.4°
Maximum altitude 02:22:14 56° 100° (E) 635 ? -5.7°
Drops below altitude 10° 02:26:00 10° 180° (S) 1,774 ? -5.1°
Sets 02:28:07 0° 184° (S) 2,660 ? -4.7°
